DAL2153 CYUL-KJFK

Flight info

Callsign DAL2153
Flight time 1h 1m
Altitude 34000
Route FAWNS DCT BUGSY DCT NIPPY DCT PONCT PUCKY1
Aircraft B739/M-SDE2E3FGHIRWXY/LB1

Departure

Time 2026-05-07 00:44
Airport Montreal / Pierre Elliott Trudeau International Airport (CYUL)

Arrival

Time 2026-05-07 01:45
Airport John F. Kennedy International Airport (KJFK)
Time Latitude Longitude Altitude Speed Heading
2026-05-07 00:06 45.45517 -73.75617 104 ft 0 kts 96°
2026-05-07 00:26 45.45517 -73.75624 105 ft 4 kts 94°
2026-05-07 00:26 45.45514 -73.75657 104 ft 4 kts 45°
2026-05-07 00:26 45.45484 -73.75668 100 ft 4 kts 351°
2026-05-07 00:26 45.45479 -73.75666 101 ft 2 kts 349°
2026-05-07 00:30 45.45485 -73.75668 100 ft 5 kts 349°
2026-05-07 00:30 45.45526 -73.75679 103 ft 6 kts 349°
2026-05-07 00:30 45.45569 -73.75691 107 ft 7 kts 349°
2026-05-07 00:30 45.45623 -73.75705 106 ft 9 kts 349°
2026-05-07 00:31 45.45689 -73.75727 106 ft 11 kts 335°
2026-05-07 00:31 45.45742 -73.75808 106 ft 12 kts 308°
2026-05-07 00:31 45.45798 -73.75905 105 ft 14 kts 319°
2026-05-07 00:31 45.45896 -73.75947 104 ft 15 kts 352°
2026-05-07 00:32 45.45994 -73.75955 104 ft 14 kts 358°
2026-05-07 00:32 45.46091 -73.75956 103 ft 14 kts 13°
2026-05-07 00:32 45.46128 -73.75843 103 ft 13 kts 88°
2026-05-07 00:32 45.46131 -73.75713 104 ft 13 kts 88°
2026-05-07 00:33 45.46134 -73.75582 103 ft 13 kts 88°
2026-05-07 00:33 45.46138 -73.75451 104 ft 13 kts 88°
2026-05-07 00:33 45.46141 -73.75325 107 ft 13 kts 88°
2026-05-07 00:33 45.46144 -73.75201 109 ft 12 kts 88°
2026-05-07 00:34 45.46147 -73.75076 108 ft 13 kts 88°
2026-05-07 00:34 45.46151 -73.74945 108 ft 13 kts 88°
2026-05-07 00:34 45.46153 -73.74818 110 ft 13 kts 88°
2026-05-07 00:34 45.46159 -73.74692 110 ft 13 kts 85°
2026-05-07 00:35 45.46140 -73.74557 108 ft 15 kts 116°
2026-05-07 00:35 45.46124 -73.74434 108 ft 11 kts 86°
2026-05-07 00:35 45.46129 -73.74324 108 ft 11 kts 85°
2026-05-07 00:35 45.46134 -73.74214 107 ft 12 kts 86°
2026-05-07 00:36 45.46141 -73.74091 105 ft 14 kts 82°
2026-05-07 00:36 45.46194 -73.73981 104 ft 14 kts 44°
2026-05-07 00:36 45.46263 -73.73893 106 ft 13 kts 41°
2026-05-07 00:36 45.46331 -73.73809 107 ft 13 kts 41°
2026-05-07 00:37 45.46396 -73.73724 109 ft 13 kts 47°
2026-05-07 00:37 45.46456 -73.73637 112 ft 12 kts 42°
2026-05-07 00:37 45.46522 -73.73555 110 ft 13 kts 41°
2026-05-07 00:37 45.46589 -73.73467 112 ft 13 kts 42°
2026-05-07 00:38 45.46655 -73.73382 111 ft 13 kts 42°
2026-05-07 00:38 45.46725 -73.73293 111 ft 14 kts 43°
2026-05-07 00:38 45.46792 -73.73202 113 ft 13 kts 43°
2026-05-07 00:38 45.46858 -73.73115 113 ft 13 kts 43°
2026-05-07 00:39 45.46922 -73.73030 116 ft 12 kts 44°
2026-05-07 00:39 45.46983 -73.72948 116 ft 12 kts 43°
2026-05-07 00:39 45.47045 -73.72866 118 ft 12 kts 42°
2026-05-07 00:39 45.47107 -73.72785 120 ft 12 kts 42°
2026-05-07 00:40 45.47170 -73.72704 119 ft 12 kts 42°
2026-05-07 00:40 45.47234 -73.72622 119 ft 14 kts 41°
2026-05-07 00:40 45.47306 -73.72528 117 ft 14 kts 43°
2026-05-07 00:40 45.47375 -73.72437 118 ft 14 kts 43°
2026-05-07 00:41 45.47446 -73.72344 118 ft 14 kts 42°
2026-05-07 00:41 45.47516 -73.72253 121 ft 13 kts 43°
2026-05-07 00:41 45.47584 -73.72164 121 ft 13 kts 43°
2026-05-07 00:41 45.47647 -73.72079 124 ft 13 kts 44°
2026-05-07 00:42 45.47710 -73.71993 124 ft 12 kts 43°
2026-05-07 00:42 45.47772 -73.71912 123 ft 13 kts 42°
2026-05-07 00:42 45.47836 -73.71819 126 ft 13 kts 62°
2026-05-07 00:42 45.47805 -73.71710 124 ft 14 kts 142°
2026-05-07 00:43 45.47718 -73.71651 123 ft 14 kts 168°
2026-05-07 00:43 45.47634 -73.71693 125 ft 13 kts 222°
2026-05-07 00:43 45.47550 -73.71801 126 ft 25 kts 222°
2026-05-07 00:43 45.47245 -73.72199 116 ft 96 kts 223°
2026-05-07 00:44 45.46595 -73.73067 110 ft 154 kts 224°
2026-05-07 00:44 45.45785 -73.74166 649 ft 153 kts 224°
2026-05-07 00:44 45.45036 -73.75195 1455 ft 150 kts 226°
2026-05-07 00:44 45.44274 -73.76283 2002 ft 163 kts 229°
2026-05-07 00:45 45.43430 -73.77521 2391 ft 185 kts 229°
2026-05-07 00:45 45.42503 -73.78921 2770 ft 203 kts 230°
2026-05-07 00:45 45.41502 -73.80469 3120 ft 222 kts 231°
2026-05-07 00:45 45.40460 -73.82116 3739 ft 228 kts 231°
2026-05-07 00:46 45.39362 -73.83851 4237 ft 244 kts 229°
2026-05-07 00:46 45.38135 -73.85669 4774 ft 262 kts 226°
2026-05-07 00:46 45.36717 -73.87382 5314 ft 279 kts 217°
2026-05-07 00:46 45.35052 -73.88661 6578 ft 267 kts 206°
2026-05-07 00:47 45.33336 -73.89647 7586 ft 266 kts 205°
2026-05-07 00:47 45.31590 -73.90610 8394 ft 270 kts 205°
2026-05-07 00:47 45.29838 -73.91563 9367 ft 269 kts 205°
2026-05-07 00:47 45.28091 -73.92507 10217 ft 270 kts 205°
2026-05-07 00:48 45.26326 -73.93464 10949 ft 275 kts 206°
2026-05-07 00:48 45.24449 -73.94495 11195 ft 298 kts 206°
2026-05-07 00:48 45.22464 -73.95601 11638 ft 312 kts 206°
2026-05-07 00:48 45.20396 -73.96778 11871 ft 332 kts 207°
2026-05-07 00:49 45.18199 -73.98067 12028 ft 352 kts 207°
2026-05-07 00:49 45.15890 -73.99421 12428 ft 363 kts 207°
2026-05-07 00:49 45.13538 -74.00789 13046 ft 368 kts 207°
2026-05-07 00:49 45.11159 -74.02166 13767 ft 369 kts 207°
2026-05-07 00:50 45.08779 -74.03538 14413 ft 370 kts 207°
2026-05-07 00:50 45.06387 -74.04918 15044 ft 372 kts 207°
2026-05-07 00:50 45.03982 -74.06304 15665 ft 373 kts 207°
2026-05-07 00:50 45.01569 -74.07693 16263 ft 375 kts 207°
2026-05-07 00:51 44.99093 -74.08931 16844 ft 381 kts 200°
2026-05-07 00:51 44.96472 -74.09636 17419 ft 388 kts 193°
2026-05-07 00:51 44.93786 -74.10113 18003 ft 390 kts 193°
2026-05-07 00:51 44.91085 -74.10592 18479 ft 393 kts 193°
2026-05-07 00:52 44.88367 -74.11085 18926 ft 395 kts 193°
2026-05-07 00:52 44.85625 -74.11593 19398 ft 398 kts 193°
2026-05-07 00:52 44.82873 -74.12108 19873 ft 400 kts 193°
2026-05-07 00:52 44.80108 -74.12630 20323 ft 403 kts 193°
2026-05-07 00:53 44.77323 -74.13155 20780 ft 405 kts 193°
2026-05-07 00:53 44.74521 -74.13683 21220 ft 408 kts 192°
2026-05-07 00:53 44.71666 -74.13960 21638 ft 416 kts 185°
2026-05-07 00:53 44.68757 -74.13627 22060 ft 423 kts 179°
2026-05-07 00:54 44.65831 -74.13101 22494 ft 425 kts 179°
2026-05-07 00:54 44.62888 -74.12570 22901 ft 428 kts 179°
2026-05-07 00:54 44.59924 -74.12043 23311 ft 430 kts 179°
2026-05-07 00:54 44.56953 -74.11525 23671 ft 432 kts 179°
2026-05-07 00:55 44.53960 -74.11011 24012 ft 434 kts 179°
2026-05-07 00:55 44.50949 -74.10499 24363 ft 435 kts 179°
2026-05-07 00:55 44.47936 -74.09991 24703 ft 437 kts 179°
2026-05-07 00:55 44.44916 -74.09485 25029 ft 440 kts 178°
2026-05-07 00:56 44.41864 -74.08973 25347 ft 442 kts 178°
2026-05-07 00:56 44.38809 -74.08462 25648 ft 444 kts 178°
2026-05-07 00:56 44.35729 -74.07947 25953 ft 446 kts 179°
2026-05-07 00:56 44.32680 -74.07437 26258 ft 449 kts 179°
2026-05-07 00:57 44.29531 -74.06911 26544 ft 451 kts 179°
2026-05-07 00:57 44.26409 -74.06390 26887 ft 452 kts 179°
2026-05-07 00:57 44.23292 -74.05868 27333 ft 450 kts 179°
2026-05-07 00:57 44.20192 -74.05349 27794 ft 449 kts 179°
2026-05-07 00:58 44.17087 -74.04832 28213 ft 449 kts 179°
2026-05-07 00:58 44.13986 -74.04316 28630 ft 449 kts 179°
2026-05-07 00:58 44.10883 -74.03801 29088 ft 448 kts 179°
2026-05-07 00:58 44.07792 -74.03288 29548 ft 447 kts 180°
2026-05-07 00:59 44.01618 -74.02267 30316 ft 447 kts 180°
2026-05-07 00:59 43.98534 -74.01758 30606 ft 448 kts 181°
2026-05-07 00:59 43.95433 -74.01247 30906 ft 448 kts 181°
2026-05-07 01:00 43.92333 -74.00735 31225 ft 449 kts 182°
2026-05-07 01:00 43.89237 -74.00224 31539 ft 449 kts 183°
2026-05-07 01:00 43.86122 -73.99713 31765 ft 452 kts 184°
2026-05-07 01:00 43.83003 -73.99200 32073 ft 451 kts 184°
2026-05-07 01:01 43.79893 -73.98687 32459 ft 449 kts 183°
2026-05-07 01:01 43.76794 -73.98176 32774 ft 449 kts 184°
2026-05-07 01:01 43.73682 -73.97667 33005 ft 450 kts 184°
2026-05-07 01:01 43.70570 -73.97159 33242 ft 451 kts 184°
2026-05-07 01:02 43.67451 -73.96646 33567 ft 451 kts 185°
2026-05-07 01:02 43.64343 -73.96127 33858 ft 450 kts 185°
2026-05-07 01:02 43.61216 -73.95604 33856 ft 454 kts 185°
2026-05-07 01:03 43.54953 -73.94553 33865 ft 453 kts 185°
2026-05-07 01:03 43.49724 -73.93673 33869 ft 451 kts 185°
2026-05-07 01:04 43.43501 -73.92632 33880 ft 450 kts 186°
2026-05-07 01:04 43.37293 -73.91599 33881 ft 449 kts 186°
2026-05-07 01:05 43.31086 -73.90569 33872 ft 449 kts 186°
2026-05-07 01:05 43.24848 -73.89536 33880 ft 448 kts 187°
2026-05-07 01:06 43.18653 -73.88512 33882 ft 448 kts 187°
2026-05-07 01:06 43.12455 -73.87489 33881 ft 449 kts 187°
2026-05-07 01:07 43.06247 -73.86468 33884 ft 450 kts 187°
2026-05-07 01:07 43.00022 -73.85445 33890 ft 451 kts 187°
2026-05-07 01:08 42.93778 -73.84421 33887 ft 452 kts 187°
2026-05-07 01:08 42.87486 -73.83390 33891 ft 453 kts 188°
2026-05-07 01:09 42.81175 -73.82357 33890 ft 454 kts 188°
2026-05-07 01:09 42.74906 -73.81337 33890 ft 454 kts 189°
2026-05-07 01:10 42.68722 -73.81031 33907 ft 439 kts 195°
2026-05-07 01:10 42.62579 -73.81219 33903 ft 438 kts 196°
2026-05-07 01:11 42.56470 -73.81360 33888 ft 440 kts 195°
2026-05-07 01:11 42.50345 -73.81416 33877 ft 441 kts 195°
2026-05-07 01:12 42.44209 -73.81440 33859 ft 440 kts 195°
2026-05-07 01:12 42.38080 -73.81462 33848 ft 440 kts 195°
2026-05-07 01:13 42.31949 -73.81488 33840 ft 441 kts 195°
2026-05-07 01:13 42.25821 -73.81515 33838 ft 441 kts 195°
2026-05-07 01:14 42.19643 -73.81542 33842 ft 441 kts 196°
2026-05-07 01:14 42.13535 -73.81569 33832 ft 442 kts 196°
2026-05-07 01:15 42.07349 -73.81596 33824 ft 442 kts 196°
2026-05-07 01:15 42.01309 -73.82066 33837 ft 413 kts 210°
2026-05-07 01:15 41.98720 -73.83416 33836 ft 391 kts 222°
2026-05-07 01:16 41.96345 -73.85190 33834 ft 391 kts 223°
2026-05-07 01:16 41.91597 -73.88813 33833 ft 393 kts 223°
2026-05-07 01:17 41.87207 -73.92103 33823 ft 394 kts 222°
2026-05-07 01:17 41.82383 -73.95671 33819 ft 393 kts 222°
2026-05-07 01:17 41.79966 -73.97460 33149 ft 400 kts 222°
2026-05-07 01:18 41.77545 -73.99241 32394 ft 397 kts 221°
2026-05-07 01:18 41.75120 -74.01022 31542 ft 396 kts 221°
2026-05-07 01:18 41.72634 -74.02675 30617 ft 408 kts 213°
2026-05-07 01:18 41.69815 -74.03664 29735 ft 429 kts 202°
2026-05-07 01:19 41.66823 -74.04158 28659 ft 435 kts 199°
2026-05-07 01:19 41.63813 -74.04573 27640 ft 436 kts 199°
2026-05-07 01:19 41.60777 -74.04981 26602 ft 437 kts 198°
2026-05-07 01:19 41.57745 -74.05408 25588 ft 438 kts 198°
2026-05-07 01:20 41.54736 -74.05846 24865 ft 431 kts 199°
2026-05-07 01:20 41.51766 -74.06292 24111 ft 427 kts 199°
2026-05-07 01:20 41.48827 -74.06745 23332 ft 423 kts 199°
2026-05-07 01:20 41.45919 -74.07198 22462 ft 419 kts 198°
2026-05-07 01:21 41.43046 -74.07644 21688 ft 414 kts 197°
2026-05-07 01:21 41.40503 -74.08036 21019 ft 410 kts 197°
2026-05-07 01:21 41.37689 -74.08474 20407 ft 401 kts 198°
2026-05-07 01:21 41.35082 -74.09409 19830 ft 377 kts 212°
2026-05-07 01:22 41.32856 -74.11056 19430 ft 363 kts 219°
2026-05-07 01:22 41.30705 -74.12924 19017 ft 377 kts 220°
2026-05-07 01:22 41.28480 -74.14886 18547 ft 388 kts 219°
2026-05-07 01:22 41.26212 -74.16867 18101 ft 390 kts 218°
2026-05-07 01:23 41.23938 -74.18827 17568 ft 387 kts 218°
2026-05-07 01:23 41.21650 -74.20781 17089 ft 384 kts 218°
2026-05-07 01:23 41.19421 -74.22679 16715 ft 378 kts 218°
2026-05-07 01:23 41.17217 -74.24552 16805 ft 376 kts 218°
2026-05-07 01:24 41.15011 -74.26431 16846 ft 380 kts 218°
2026-05-07 01:24 41.12782 -74.28326 16831 ft 380 kts 218°
2026-05-07 01:24 41.10552 -74.30211 16827 ft 381 kts 217°
2026-05-07 01:24 41.08074 -74.31594 16827 ft 394 kts 200°
2026-05-07 01:25 41.05272 -74.31934 16832 ft 410 kts 184°
2026-05-07 01:25 41.02423 -74.31204 16828 ft 427 kts 168°
2026-05-07 01:25 40.99752 -74.29341 16824 ft 444 kts 150°
2026-05-07 01:25 40.97593 -74.26459 16826 ft 449 kts 132°
2026-05-07 01:26 40.95906 -74.23060 16821 ft 433 kts 128°
2026-05-07 01:26 40.94381 -74.19745 16814 ft 414 kts 128°
2026-05-07 01:26 40.92895 -74.16584 16809 ft 395 kts 129°
2026-05-07 01:26 40.91714 -74.14150 16797 ft 381 kts 130°
2026-05-07 01:27 40.90817 -74.12326 16790 ft 370 kts 130°
2026-05-07 01:27 40.89433 -74.09514 16777 ft 357 kts 130°
2026-05-07 01:27 40.88109 -74.06807 16770 ft 349 kts 130°
2026-05-07 01:27 40.86757 -74.04109 16788 ft 354 kts 136°
2026-05-07 01:28 40.84966 -74.01920 16546 ft 340 kts 159°
2026-05-07 01:28 40.82886 -74.00802 16347 ft 318 kts 175°
2026-05-07 01:28 40.80759 -74.00121 16033 ft 311 kts 178°
2026-05-07 01:28 40.78689 -73.99524 15987 ft 297 kts 178°
2026-05-07 01:29 40.76721 -73.98949 16000 ft 283 kts 178°
2026-05-07 01:29 40.74848 -73.98384 15924 ft 272 kts 178°
2026-05-07 01:29 40.73025 -73.97824 15667 ft 268 kts 178°
2026-05-07 01:29 40.71206 -73.97265 15274 ft 269 kts 178°
2026-05-07 01:30 40.69337 -73.96713 14581 ft 284 kts 178°
2026-05-07 01:30 40.67402 -73.96162 14406 ft 288 kts 178°
2026-05-07 01:30 40.65426 -73.95299 14205 ft 307 kts 159°
2026-05-07 01:30 40.63797 -73.93422 13940 ft 325 kts 134°
2026-05-07 01:31 40.62694 -73.90733 13628 ft 334 kts 120°
2026-05-07 01:31 40.61828 -73.87893 13278 ft 333 kts 118°
2026-05-07 01:31 40.61003 -73.85066 12929 ft 331 kts 117°
2026-05-07 01:31 40.60182 -73.82228 12577 ft 330 kts 117°
2026-05-07 01:32 40.59367 -73.79410 12234 ft 329 kts 117°
2026-05-07 01:32 40.58557 -73.76615 11896 ft 327 kts 117°
2026-05-07 01:32 40.57747 -73.73832 11565 ft 326 kts 117°
2026-05-07 01:32 40.56932 -73.71046 11223 ft 324 kts 117°
2026-05-07 01:33 40.56122 -73.68293 10895 ft 323 kts 117°
2026-05-07 01:33 40.55306 -73.65544 10572 ft 322 kts 117°
2026-05-07 01:33 40.54490 -73.62809 10244 ft 320 kts 117°
2026-05-07 01:33 40.53674 -73.60093 9941 ft 319 kts 117°
2026-05-07 01:34 40.52856 -73.57391 9626 ft 318 kts 117°
2026-05-07 01:34 40.52288 -73.54572 9290 ft 322 kts 97°
2026-05-07 01:34 40.52417 -73.51654 8981 ft 320 kts 76°
2026-05-07 01:34 40.53230 -73.48957 8645 ft 316 kts 55°
2026-05-07 01:35 40.54620 -73.46797 8337 ft 306 kts 34°
2026-05-07 01:35 40.56402 -73.45403 7991 ft 294 kts 12°
2026-05-07 01:35 40.58350 -73.44912 7690 ft 278 kts 352°
2026-05-07 01:35 40.60258 -73.44998 7368 ft 273 kts 348°
2026-05-07 01:36 40.62149 -73.45171 7052 ft 272 kts 347°
2026-05-07 01:36 40.64030 -73.45360 6757 ft 270 kts 347°
2026-05-07 01:36 40.65925 -73.45561 6448 ft 270 kts 347°
2026-05-07 01:36 40.67796 -73.45771 6143 ft 269 kts 347°
2026-05-07 01:37 40.69652 -73.45984 5873 ft 266 kts 347°
2026-05-07 01:37 40.71498 -73.46203 5529 ft 266 kts 347°
2026-05-07 01:37 40.73327 -73.46433 5281 ft 263 kts 347°
2026-05-07 01:37 40.75149 -73.46670 4991 ft 262 kts 347°
2026-05-07 01:38 40.76963 -73.46917 4662 ft 262 kts 347°
2026-05-07 01:38 40.78774 -73.47175 4342 ft 262 kts 347°
2026-05-07 01:38 40.80511 -73.47658 4088 ft 248 kts 325°
2026-05-07 01:38 40.81641 -73.49156 4004 ft 221 kts 291°
2026-05-07 01:39 40.82206 -73.50957 3926 ft 207 kts 288°
2026-05-07 01:39 40.82720 -73.52700 3814 ft 198 kts 287°
2026-05-07 01:39 40.83199 -73.54381 3474 ft 196 kts 282°
2026-05-07 01:39 40.83127 -73.56136 3025 ft 197 kts 246°
2026-05-07 01:40 40.82357 -73.57666 2681 ft 197 kts 238°
2026-05-07 01:40 40.81575 -73.59129 2394 ft 192 kts 238°
2026-05-07 01:40 40.80809 -73.60581 2071 ft 190 kts 238°
2026-05-07 01:40 40.80081 -73.61942 2015 ft 173 kts 238°
2026-05-07 01:41 40.79404 -73.63193 2033 ft 165 kts 236°
2026-05-07 01:41 40.78538 -73.64190 2020 ft 166 kts 221°
2026-05-07 01:41 40.77603 -73.65094 2016 ft 168 kts 221°
2026-05-07 01:41 40.76624 -73.65950 2010 ft 169 kts 218°
2026-05-07 01:42 40.75625 -73.66759 2018 ft 168 kts 217°
2026-05-07 01:42 40.74622 -73.67551 2025 ft 168 kts 218°
2026-05-07 01:42 40.73613 -73.68343 2004 ft 168 kts 217°
2026-05-07 01:42 40.72600 -73.69138 1857 ft 171 kts 216°
2026-05-07 01:43 40.71582 -73.69936 1670 ft 167 kts 217°
2026-05-07 01:43 40.70600 -73.70707 1411 ft 162 kts 216°
2026-05-07 01:43 40.69654 -73.71452 1201 ft 155 kts 216°
2026-05-07 01:43 40.68751 -73.72169 1059 ft 151 kts 214°
2026-05-07 01:44 40.67842 -73.72874 805 ft 152 kts 212°
2026-05-07 01:44 40.66942 -73.73599 616 ft 147 kts 212°
2026-05-07 01:44 40.66069 -73.74265 431 ft 141 kts 211°
2026-05-07 01:44 40.65234 -73.74938 245 ft 137 kts 211°
2026-05-07 01:45 40.64419 -73.75564 51 ft 134 kts 211°
2026-05-07 01:45 40.63696 -73.76134 21 ft 101 kts 211°
2026-05-07 01:45 40.63248 -73.76483 21 ft 34 kts 212°
2026-05-07 01:45 40.63043 -73.76660 19 ft 34 kts 223°
2026-05-07 01:46 40.62936 -73.76882 20 ft 21 kts 247°
2026-05-07 01:46 40.62945 -73.77007 20 ft 10 kts 300°
2026-05-07 01:46 40.62979 -73.77085 21 ft 10 kts 300°
2026-05-07 01:46 40.63012 -73.77160 20 ft 9 kts 301°
2026-05-07 01:47 40.63049 -73.77242 20 ft 14 kts 301°
2026-05-07 01:47 40.63129 -73.77418 21 ft 31 kts 301°
2026-05-07 01:47 40.63261 -73.77702 25 ft 35 kts 302°
2026-05-07 01:47 40.63370 -73.77938 20 ft 31 kts 301°
2026-05-07 01:48 40.63415 -73.78037 20 ft 17 kts 301°
2026-05-07 01:48 40.63490 -73.78216 20 ft 18 kts 298°
2026-05-07 01:48 40.63533 -73.78282 20 ft 8 kts 336°
2026-05-07 01:48 40.63572 -73.78260 20 ft 7 kts 26°
2026-05-07 01:49 40.63583 -73.78255 20 ft 0 kts 17°
2026-05-07 01:49 40.63597 -73.78252 20 ft 7 kts
2026-05-07 01:49 40.63670 -73.78262 20 ft 13 kts 352°
2026-05-07 01:49 40.63772 -73.78280 20 ft 16 kts 352°
2026-05-07 01:50 40.63854 -73.78259 20 ft 2 kts 72°
2026-05-07 01:50 40.63854 -73.78226 20 ft 5 kts 88°
2026-05-07 01:50 40.63856 -73.78185 20 ft 3 kts 83°
2026-05-07 01:50 40.63857 -73.78179 20 ft 0 kts 84°
2026-05-07 01:51 40.63857 -73.78177 20 ft 0 kts 83°